Find Hai Yang 2-03

NORAD ID: 46469 Int'l Des: 2020-066 Owner: GYZ/CASC Country: CN operational
LEOCIRCULAR

当前视图

正在加载3D地球...

About Hai Yang 2-03

Hai Yang 2-03 (NORAD 46469) is a satellite launched Sep 21, 2020 by GYZ/CASC of CN. It operates in LEO, CIRCULAR orbit with a mass of 1500.00 kg.

即将过境

Passes for default location (London). Set your location on the main map for personalized predictions.

高度历史

Loading altitude history...

两行轨道根数

1 46469U 20066A 26195.20400218 -.00000192 00000-0 -10057-3 0 9993
2 46469 65.9960 148.0181 0007685 237.1428 122.8901 13.83372292293234
Epoch: Jul 14, 2026 • Age: 12 hours

当前状态

高度 970.2 km
远地点 / 近地点 N/A
速度 7.37 km/s
星下点 -63.86°S, 149.55°W
发射日期 Sep 21, 2020
运行时间 5.8 years
类型 other

技术详情

分类 Payload
质量 1500.00 kg
干质量 1500.00 kg
总质量 1500.00 kg
长度 1.00 m
直径 1.00 m
跨度 4.00 m
形状 Box + 2 Pan
制造商 SISE
平台类型 CAST-968
阶段状态 In Orbit
所有者/国家 GYZ/CASC/CN

Most Searched